Location: East Irvine
(33.6759°N, 117.7598°W)
Time: 21:53:07
(UTC+00:00)

MOS 1 Rocket - Pass Details

Date: 15 November 2025
Orbit: 610 x 813 km, 97.4° (Epoch: 13 December)

Event Time Altitude Azimuth Distance (km) Brightness Sun altitude
Rises 02:03:46 0° 171° (S) 2,856 6.5 -15.8°
Reaches altitude 10° 02:05:55 10° 172° (S) 1,955 5.7 -16.3°
Maximum altitude 02:10:08 77° 258° (WSW) 634 3.2 -17.1°
Drops below altitude 10° 02:14:29 10° 346° (NNW) 2,008 5.7 -18.0°
Sets 02:16:43 0° 347° (NNW) 2,941 6.6 -18.5°
